sat.trackr.live / text

‹ back to catalog

STARLINK-33740

NORAD 63451 · 2025-069U

PAYLOAD ACTIVE UNKNOWN

§ Identity

Operator
Country
US
Launch date
2025-04-04
Launch site
AFWTR
Launch vehicle
Mass (kg)
RCS (m²)

Purposes: comms

External: N2YO · Heavens-Above · Gunter

§ Orbital elements

Epoch: 2026-05-24T21:00:25.776576Z

Period
93.37 min
Inclination
53.1583°
Eccentricity
0.0001401
Mean motion
15.42186627 rev/d
Perigee alt
438.7 km
Apogee alt
440.6 km
Semi-major
6,817.8 km
B*
8.3124e-4
RAAN
146.1403°
Arg perigee
83.2021°
Mean anomaly
276.9144°
Rev number
6,499

§ Raw data

STARLINK-337401 63451U 25069U   26144.87529834  .00035963  00000+0  83124-3 0  99902 63451  53.1583 146.1403 0001401  83.2021 276.9144 15.42186627 64990

JSON: /api/v1/satellites/63451 · /tle

For live sub-satellite position, see the globe view (requires WebGL).

§ Visibility from observer

Set your observer location to see the next 7 days of passes ≥ 10°. The values pass through the URL so the page stays shareable.

No JS? Fill the form by hand. The geolocation button needs JavaScript.